Powrót do katalogu

CZ-6A DEB

AktywnySSO
NORAD 54410·DEBRIS·🇨🇳 China

Wystrzelony Nov 11, 2022 z Taiyuan Satellite Launch Center

Loading…

Następne Przeloty (najbliższe 24 godziny)

TLE

ŚwieżeSource: Space-Track

Epoka: Sep 14, 2026, 02:12 UTC

1 54410U 22151EJ  26257.09195902  .00001416  00000-0  39659-3 0  9999
2 54410  98.6837 307.4063 0126244 355.4913   4.5129 14.43174163201197

Śledź CZ-6A DEB w czasie rzeczywistym z AllMySat

Download on the App Store